www.pogodaiklimat.ru

Погода и климат >> Архив погоды >> Россия >> Амурская область >> Бомнак


АРХИВ ПОГОДЫ в Бомнаке

Время (UTC), дата Ветер
(напр.,м/с)
 
Видим.   Явления Облачность Т
(С)
Тd
(С)
f
(%)
Тe
(С)
Тes
(С)
Комфортность P
(гПа)
Po
(гПа)
Тmin
(С)
Tmax
(С)
R
(мм)
R24
(мм)
S
(см)
18 12.06 В 5
{11}
10 км слаб. дождь 10/10 600 м
[Frnb Ns]
+5.9 +3.8 86 +1 +1 1006.6 963.1
21 12.06 В 4
{10}
10 км слаб. дождь 10/10 600 м
[Frnb Ns]
+5.4 +3.7 89 +1 +1 1007.2 963.6
00 13.06 В 4 50 км {дождь} 10/10 600 м
[Frnb Ns]
+7.6 +4.8 82 +4 +4 1007.8 964.5 +5.3 5
03 13.06 ЮВ 4 50 км 10/5 600 м
[Cu Sc Ac trans Ci fib]
+13.2 +6.5 64 +12 +14 1006.7 964.1
06 13.06 ЮВ 4 50 км 10/4 600 м
[Sc diur, vesp Ac trans Ci fib]
+15.8 +5.3 50 +15 +17 1006.1 963.9
09 13.06 ЮВ 4 50 км 8/8 600 м
[Cu Sc Ci fib]
+15.2 +5.7 53 +14 +15 1007.2 964.9
12 13.06 ЮВ 2 50 км 10/6 600 м
[Cb cap Ac trans Ci fib]
+12.0 +5.5 64 +11 +11 1009.6 966.9 +16.0
15 13.06 В 4
{11}
50 км 10/8 600 м
[Cb cap Ac trans Cs]
+7.4 +2.5 71 +4 +4 1012.4 968.8
18 13.06 В 3 50 км 10/8 600 м
[Sc diur, vesp Ci fib]
+4.8 +1.3 78 +1 +1 1014.0 970.0
21 13.06 В 3 50 км 6/3 600 м
[Sc Ac trans Ci fib]
+3.9 +0.3 77 0 +1 1016.1 971.8
00 14.06 В 4 50 км 4/0
[Ac trans Ci fib]
+8.6 +1.4 61 +6 +11 1015.7 972.1 +3.2
03 14.06 ЮВ 3 50 км 4/1 600 м
[Cu hum Ci fib]
+13.4 +0.4 41 +13 +24 опасность
простуды
1014.4 971.7
06 14.06 Ю 2 50 км 10/3 600 м
[Cu hum Ci fib]
+16.6 0.0 32 +17 +24 1012.9 970.7
09 14.06 З 3 50 км 3/3 600 м
[Cu med, cong]
+17.0 +0.2 32 +17 +19 1012.9 970.6
12 14.06 ЮВ 3 50 км 4/4 600 м
[Sc]
+13.4 +4.0 53 +12 +12 1015.0 972.1 +17.8
15 14.06 В 5 50 км 4/4 600 м
[Sc]
+9.0 -0.8 50 +6 +6 1017.6 974.0
18 14.06 В 3 50 км 8/8 600 м
[Sc]
+6.7 -2.8 51 +4 +4 1018.6 974.5
21 14.06 В 5 50 км 8/6 600 м
[Cb cap Ac trans]
+7.3 -1.9 52 +4 +4 1018.7 974.7
00 15.06 В 1 50 км 8/4 600 м
[Cb cap Ac As]
+8.5 +1.5 61 +8 +12 1018.7 975.1 +6.3
03 15.06 Ю 1 50 км 8/6 600 м
[Sc diur, vesp Ac As]
+11.8 +0.4 45 +12 +17 1016.7 973.6
06 15.06 ЮЗ 1 50 км 4/3 600 м
[Cu med, cong Cs]
+17.8 -0.3 29 +19 +29 1013.6 971.5
09 15.06 ЮЗ 1 50 км 8/4 600 м
[Cu hum Cc]
+20.0 -0.6 25 +21 +23 комфорт 1012.2 970.5
12 15.06 ЮВ 1 50 км 8/0
[Ac cast Ci fib]
+15.4 +4.8 49 +16 +16 1012.8 970.3 +20.2
15 15.06 В 1 50 км 4/0
[Ac cast Ci fib]
+11.7 +2.4 53 +12 +12 1013.5 970.4
18 15.06 Ю 1 50 км 3/0
[Ac trans]
+7.8 +2.7 70 +7 +7 1014.0 970.3
21 15.06 В 3 50 км 10/3 600 м
[Sc Ac cast Ci ing]
+8.1 +2.0 65 +6 +6 1014.2 970.5
00 16.06 ЮВ 3 50 км 10/4 600 м
[Sc Ac trans Cs]
+12.1 +4.0 58 +11 +13 1012.2 969.4 +6.1
03 16.06 В 1 50 км 10/6 600 м
[Cb cap Ac trans]
+14.5 +5.4 54 +15 +18 1010.9 968.5
06 16.06 СЗ 4 50 км 10/8 600 м
[Cb cap Ac trans Ci fib]
+17.1 +5.5 46 +17 +18 1009.5 967.5
09 16.06 СЗ 3 50 км 10/3 600 м
[Sc diur, vesp Ac trans Ci fib]
+15.9 +6.6 54 +16 +16 1009.5 967.4
12 16.06 С 1 50 км 8/0
[]
+13.6 +6.9 64 +14 +14 1009.8 967.3 +17.2
15 16.06 С 2 50 км 10/3 600 м
[Sc Ac trans Ci fib]
+8.1 +6.1 87 +6 +6 1010.5 967.2
18 16.06 ЮВ 2 50 км 8/6 600 м
[Sc Ci fib]
+7.9 +6.4 90 +6 +6 1011.0 967.6
21 16.06 50 км н/о +8.7 +4.4 74 +6 +7 1012.1 968.8
00 17.06 ЮВ 3 50 км 8/6 600 м
[Cu hum Ac trans]
+13.2 +5.4 59 +12 +14 1012.0 969.2 +6.5
03 17.06 Ю 2 50 км 3/3 600 м
[Cu med, cong]
+18.5 +6.0 44 +19 +31 опасность
простуды
1010.3 968.3
06 17.06 ЮВ 2 50 км 6/4 600 м
[Cu med, cong Ci fib]
+20.0 +6.0 40 +21 +28 комфорт 1009.0 967.3
09 17.06 Ю 1 50 км 8/8 600 м
[Cu Sc]
+20.9 +5.3 36 +23 +24 комфорт 1007.9 966.4
12 17.06 штиль 0 50 км 4/3 600 м
[Sc diur, vesp Ci fib]
+17.2 +6.7 50 +17 +17 1008.4 966.5 +21.7
15 17.06 С 2 50 км ясно +11.0 +6.4 73 +10 +10 1009.2 966.3
18 17.06 С 1 50 км ясно +7.2 +5.3 88 +6 +6 1008.9 965.5
21 17.06 СЗ 1 50 км 10/3 600 м
[Sc Ac trans Ci fib]
+7.5 +5.7 88 +7 +7 1007.7 964.4
00 18.06 Ю 2 50 км 10/3 600 м
[Sc Ac trans Ci sp]
+14.0 +9.1 72 +14 +17 1004.1 961.8 +5.8
03 18.06 Ю 1 50 км 10/6 600 м
[Cu Sc Ac As Ci fib]
+17.7 +10.0 61 +19 +23 1000.3 958.7
06 18.06 С 4
{11}
50 км в посл. час дождь 10/8 600 м
[Cb calv Ac As Ci fib]
+18.9 +6.3 44 +19 +20 1000.2 958.7
09 18.06 С 4
{10}
50 км слаб. дождь {гроза} 10/8 600 м
[Frnb Ac As]
+14.6 +9.5 71 +13 +14 1000.6 958.5
12 18.06 СВ 5 50 км {гроза, ливн. осадки} 8/8 600 м
[Cb calv]
+13.5 +1.9 45 +12 +12 1002.3 960.1 +24.2 0.7
15 18.06 С 4 50 км 3/3 600 м
[Sc diur, vesp]
+10.1 +0.7 52 +8 +8 1004.2 961.4
18 18.06 С 4 50 км ясно +7.5 +0.9 63 +4 +4 1004.9 961.6
21 18.06 С 5 50 км 3/3 600 м
[Sc Ci fib]
+9.7 -0.8 48 +7 +8 1004.7 961.6
00 19.06 В 4 50 км 10/8 600 м
[Sc Ci fib]
+13.2 -1.8 35 +12 +13 1005.1 962.5 +5.8
03 19.06 СВ 3 50 км 8/4 600 м
[Cu hum Ci fib]
+18.9 -1.1 26 +19 +26 1004.1 962.5
06 19.06 ЮЗ 3 50 км 8/4 600 м
[Cu med, cong Ac trans Ci fib]
+20.4 +0.4 26 +21 +25 комфорт 1003.5 962.2
09 19.06 ЮВ 4 50 км 8/6 600 м
[Cu hum Ac lent]
+21.4 +1.3 26 +21 +22 комфорт 1003.7 962.5
12 19.06 В 3
{10}
50 км 8/0
[Ac trans Ci sp]
+17.1 +2.5 38 +17 +17 1007.1 965.1 +22.7

 

Местоположение метеостанции Бомнак (Амурская область, Россия): широта 54.72 долгота 128.80 высота над уровнем моря 364 м.

В архиве по умолчанию представлена погода в Бомнаке за последнюю неделю. Архивные данные за месяц целиком и за предыдущие месяцы, начиная с января 2011 года, Вы можете получить, выбрав интересующий диапазон дат из раскрывающегося списка и нажав кнопку "Ввод!".


*Определитесь, кто Вы:
робот инопланетянин человек

Внимание! Время в таблицах - всемирное. Для получения местного времени необходимо прибавить поправку, которая равна 9 ч.

Смотрите также архив погоды в соседних городах и на ближайших метеорологических станциях:

Погода в Береговом (Амурская область, Россия) (98 км)
Погода в Локшаке (Амурская область, Россия) (103 км)
Погода в Зее (Амурская область, Россия) (151 км)
Погода в Дугде (Амурская область, Россия) (171 км)
Погода в Октябрьский Прииск (Амурская область, Россия) (192 км)
Погода в Токо (Якутия, Россия) (226 км)
Погода в Магдагачи (Амурская область, Россия) (241 км)
Погода в Тыгде (Амурская область, Россия) (243 км)
Погода в Тынде (Амурская область, Россия) (273 км)
Погода в Норске (Амурская область, Россия) (273 км)

Пояснения к столбцам:

Ветер - указаны скорость ветра в м/с - средняя за 10 мин, порывы в срок и между сроками (в фигурных скобках) и направление, откуда дует ветер: С - северный, СВ - северо-восточный, В - восточный, ЮВ - юго-восточный, Ю - южный, ЮЗ - юго-западный, З - западный, СЗ - северо-западный.
Видимость - горизонтальная дальность видимости в метрах или километрах. При видимости от 1 до 10 км при отсутствии осадков обычно наблюдается дымка, при ухудшении видимости до 1 км и менее - туман. В сухую погоду видимость может ухудшаться дымом, пылью или мглою.
Явления - указаны атмосферные явления, наблюдавшиеся в срок или в последний час перед сроком; фигурными скобками обозначены явления, наблюдавшиеся между сроками (за 1-3 часа до срока); квадратными скобками обозначены град или гололедные отложения с указанием их диаметра в мм.
Облачность - указаны через наклонную черту общая и нижняя облачность в баллах и высота нижней границы облаков в метрах; квадратными скобками обозначены формы облаков: Ci - перистые, Cs - перисто-слоистые, Cc - перисто-кучевые, Ac - высококучевые, As - высокослоистые, Sc - слоисто-кучевые, Ns - слоисто-дождевые, Cu - кучевые, Cb - кучево-дождевые. Подробнее классификацию облаков см. в Атласе облаков (PDF).
T - Температура воздуха - температура, измеренная на высоте 2 м над землей.
Td - Температура точки росы - температура, при понижении до которой содержащийся в воздухе водяной пар достигнет насыщения.
f - Относительная влажность воздуха - влажноcть воздуха, измеренная на высоте 2 м над землей.
Te - Эффективная температура - температура, которую ощущает одетый по сезону человек в тени. Характеристика душности погоды. При расчете учитывается влияние влажности воздуха и скорости ветра на теплоощущения человека.
Tes - Эффективная температура на солнце - температура, которую ощущает человек, с поправкой на солнечный нагрев. Характеристика знойности погоды. Зависит от высоты солнца над горизонтом, облачности и скорости ветра. Ночью, в пасмурную погоду, а также при ветре 12 м/с и более поправка равна нулю.
P - Атмосферное давление - приведенное к уровню моря атмосферное давление.
Po - Атмосферное давление - измеренное на уровне метеостанции атмосферное давление.
Tmin - Минимальная температура - минимум температуры воздуха на высоте 2 м над землей.
Tmax - Максимальная температура - максимум температуры воздуха на высоте 2 м над землей.
R - Количество осадков - Количество выпавших осадков за период времени, мм. При наведении курсора мыши на число - период времени, за который выпало указанное количество осадков.
R24 - Количество осадков - Количество выпавших осадков за 24 часа, мм.
S - Снежный покров - Высота снежного покрова, см. При наведении курсора мыши на число - состояние снежного покрова и степень покрытия местности в баллах.